Regional Weather Roundup
Issued by NWS Goodland, KS

Home | Current Version | Previous Version | Graphics & Text | Print | Product List | Glossary On
Versions: 1 2 3 4 5 6 7 8 9 10 11 12 13 14 15 16 17 18 19 20 21 22 23 24 25 26 27 28 29 30 31 32 33 34 35 36 37 38 39 40 41 42 43 44 45 46 47 48 49 50
000
ASUS43 KGLD 230908
RWRGLD

GOODLAND FORECAST AREA HOURLY WEATHER ROUNDUP
NATIONAL WEATHER SERVICE GOODLAND KS
200 AM MST THU NOV 23 2017

...OFFICIAL OBSERVATIONS...

CITY           SKY/WX    TMP DP  RH WIND       PRES   REMARKS
GOODLAND KS    CLOUDY    43  37  79 W8        30.16R
HILL CITY KS   CLOUDY    44  36  73 W7        30.08F
IMPERIAL NEB   CLOUDY    44  39  82 NW8       30.14R
MCCOOK NEB     CLOUDY    41  36  82 W9        30.10R
AKRON CO       CLOUDY    40  33  76 W13       30.22R
BURLINGTON CO  CLOUDY    41  35  79 W10       30.20R
LIMON CO       CLOUDY    36  33  89 NW8       30.26R
$$

...UNOFFICIAL OBSERVATIONS...

CITY           SKY/WX    TMP DP  RH WIND       PRES   REMARKS
COLBY KS       CLOUDY    43  39  87 W9        30.14S
LENORA KS        N/A     48  32  54 W7          N/A
NORTON KS      CLEAR     37  30  75 W7        30.08
SHARON SPRINGS   N/A     41  35  79 W5          N/A
KIT CARSON CO    N/A     44  35  72 MISG        N/A
YUMA CO        FAIR      39  34  81 W8        30.19R
$$



USA.gov is the U.S. government's official web portal to all federal, state and local government web resources and services.